Date,TemperatureHighF,TemperatureAvgF,TemperatureLowF,DewpointHighF,DewpointAvgF,DewpointLowF,HumidityHigh,HumidityAvg,HumidityLow,PressureMaxIn,PressureMinIn,WindSpeedMaxMPH,WindSpeedAvgMPH,GustSpeedMaxMPH,PrecipitationSumIn
2013-11-1,52,46,40,31,28,25,61,51,40,30.25,30.08,3,0,12,0.00
2013-11-2,63,50,40,29,18,6,52,31,12,30.16,29.57,0,0,0,0.00
2013-11-3,57,42,30,29,20,8,92,55,14,29.88,29.49,0,0,0,0.00
2013-11-4,29,27,26,20,19,18,76,72,70,30.14,30.10,4,4,7,0.00
2013-11-5,35,28,22,23,17,11,90,65,44,30.45,30.18,3,1,9,0.64
2013-11-6,30,29,27,16,13,11,57,53,48,30.47,30.38,0,0,0,0.00
2013-11-7,54,45,37,26,22,19,56,41,26,30.38,29.93,0,0,0,0.00
2013-11-8,59,49,42,24,19,15,44,31,20,29.96,29.84,0,0,0,0.00
2013-11-9,57,49,43,26,21,17,45,33,23,30.11,29.89,0,0,0,0.00
2013-11-10,59,50,42,30,18,14,41,29,20,30.20,30.05,0,0,0,0.00
2013-11-11,59,51,44,27,18,14,35,28,20,30.27,30.08,0,0,0,0.00
2013-11-12,60,51,44,27,18,12,33,27,18,30.38,30.17,0,0,0,0.00
2013-11-13,56,49,42,28,20,12,49,33,20,30.17,30.01,0,0,0,0.00
2013-11-14,51,42,36,28,23,14,71,48,31,30.15,29.66,0,0,0,0.00
2013-11-15,49,36,29,32,26,13,94,74,27,29.72,29.53,0,0,0,0.02
2013-11-16,39,32,28,31,26,20,93,79,50,29.77,29.58,0,0,0,0.08
2013-11-17,46,38,29,31,26,18,91,65,39,30.12,29.80,0,0,0,0.07
2013-11-18,43,40,38,23,22,20,54,47,42,30.14,30.05,0,0,0,0.00
2013-11-19,49,43,39,39,30,20,86,61,36,29.85,29.77,0,0,0,0.00
2013-11-20,45,41,38,38,34,28,93,76,62,29.84,29.74,0,0,0,0.00
2013-11-21,38,33,29,36,30,15,95,90,46,30.23,29.77,0,0,0,0.00
2013-11-22,38,33,30,15,9,2,48,36,25,30.35,30.22,0,0,0,0.00
2013-11-23,46,39,34,29,19,1,77,48,22,30.23,30.03,0,0,0,0.04
2013-11-24,37,34,31,31,28,24,87,78,67,30.25,30.04,0,0,0,0.00
2013-11-25,39,32,28,29,24,14,91,73,45,30.48,30.24,0,0,0,0.01
2013-11-26,42,34,28,26,21,17,69,59,45,30.51,30.30,0,0,0,0.00
2013-11-27,48,41,36,24,18,13,50,39,30,30.27,30.02,0,0,0,0.00
2013-11-28,48,41,36,23,19,16,48,41,32,30.09,29.99,0,0,0,0.00
2013-11-29,48,40,35,26,22,19,57,47,38,30.25,30.08,0,0,0,0.00
2013-11-30,39,36,34,22,20,19,58,54,48,30.31,30.20,0,0,0,0.00